AirNav   Everest Fuels
 
 486 users online  

KDYL Doylestown Airport
Doylestown, Pennsylvania, USA

GOING TO DOYLESTOWN?


FAA INFORMATION EFFECTIVE 21 MAY 2020

Location

FAA Identifier: DYL
Lat/Long: 40-19-58.9810N 075-07-20.4180W
40-19.983017N 075-07.340300W
40.3330503,-75.1223383
(estimated)
Elevation: 393.7 ft. / 120.0 m (surveyed)
Variation: 12W (1995)
From city: 2 miles N of DOYLESTOWN, PA
Time zone: UTC -4 (UTC -5 during Standard Time)
Zip code: 18901

Airport Operations

Airport use: Open to the public
Activation date: 05/1942
Control tower: no
ARTCC: NEW YORK CENTER
FSS: WILLIAMSPORT FLIGHT SERVICE STATION
NOTAMs facility: DYL (NOTAM-D service available)
Attendance: 0700-DUSK
NO SERVICES AVBL CHRISTMAS, NEW YEARS, & THANKSGIVING.
Wind indicator: lighted
Segmented circle: yes
Lights: ACTVT REIL RWY 23 - CTAF.
Beacon: white-green (lighted land airport)
Operates sunset to sunrise.

Airport Communications

CTAF/UNICOM: 122.975
WX ASOS: 118.875 (215-345-0392)
PHILADELPHIA APPROACH: 123.8
PHILADELPHIA DEPARTURE: 123.8
CLEARANCE DELIVERY: 118.55
WX AWOS-3 at CKZ (8 nm NW): 126.325 (215-257-7291)
WX AWOS-3 at UKT (13 nm NW): 119.475 (215-538-7610)
WX AWOS-3 at LOM (13 nm SW): 118.925 (215-646-1068)
WX ASOS at TTN (15 nm E): 126.775 (609-538-8690)
WX AWOS-3 at N40 (15 nm NE): 121.725
WX ASOS at PNE (16 nm S): 121.15 (215-677-0146)
  • CLEARANCE DELIVERY PHILADELPHIA APCH TF 800-354-9884.

Nearby radio navigation aids

VOR radial/distance  VOR name  Freq  Var
ARDr306/10.9YARDLEY VOR/DME108.2010W
PTWr081/21.1POTTSTOWN VORTAC116.5009W
SBJr239/23.0SOLBERG VOR/DME112.9010W
FJCr157/28.1ALLENTOWN VORTAC117.5010W
ETXr129/29.6EAST TEXAS VOR/DME110.2009W
RBVr295/29.8ROBBINSVILLE VORTAC113.8010W
GXUr321/31.0MC GUIRE VORTAC110.6012W
BWZr217/31.1BROADWAY VOR/DME114.2011W
MXEr054/35.4MODENA VORTAC113.2009W

 
NDB name  Hdg/Dist  Freq  Var  ID
AMBLER043/14.527512WING .. -. --.
CHATHAM245/39.925413WCAT -.-. .- -
LAKEHURST307/40.039611WNEL -. . .-..

Airport Services

Fuel available: 100LL JET-A
Parking: tiedowns
Airframe service: MAJOR
Powerplant service: MAJOR
Bottled oxygen: NONE
Bulk oxygen: NONE

Runway Information

Runway 5/23

Dimensions: 3002 x 60 ft. / 915 x 18 m
Surface: asphalt, in good condition
Weight bearing capacity: 
Single wheel: 12.0
Runway edge lights: medium intensity
RUNWAY 5  RUNWAY 23
Latitude: 40-19.787617N40-20.180290N
Longitude: 075-07.536205W075-07.143720W
Elevation: 391.7 ft.393.7 ft.
Traffic pattern: leftleft
Runway heading: 049 magnetic, 037 true229 magnetic, 217 true
Markings: nonprecision, in good conditionnonprecision, in fair condition
Visual slope indicator: 2-box SAVASI on left (5.00 degrees glide path)2-light PAPI on left (3.00 degrees glide path)
Runway end identifier lights: yes
Touchdown point: yes, no lightsyes, no lights
Obstructions: 40 ft. trees, 727 ft. from runway, 265 ft. right of centerline, 13:1 slope to clear60 ft. tree, 1162 ft. from runway, 355 ft. left of centerline, 16:1 slope to clear

Airport Ownership and Management from official FAA records

Ownership: Publicly-owned
Owner: BUCKS COUNTY AIRPORT AUTH
BOX 1185
DOYLESTOWN, PA 18902
Phone 215-345-1970
Manager: MARCEL BISSCHOPS
3879 OLD EASTON RD
DOYLESTOWN, PA 18902
Phone 215-340-0707

Airport Operational Statistics

Aircraft based on the field: 144
Single engine airplanes: 130
Multi engine airplanes: 11
Helicopters: 2
Gliders airplanes: 1
    
Aircraft operations: avg 119/day *
69% local general aviation
24% transient general aviation
7% air taxi
<1% military
* for 12-month period ending 28 February 2020

Additional Remarks

NOISE ABATEMENT PROCEDURES IN EFFECT; CTC AMGR 215-340-0707.
TOUCH AND GO LNDGS PROHIBITED.
MIDFIELD TWY CLSD INDEFLY.
DEER, GEESE AND OTHER WILDLIFE ON AND INVOF RWY.
RY 05 IS USED FOR CROSSWIND & CALM WIND RY.
FOR CD CTC PHILADELPHIA APCH AT 800-354-9884.

Instrument Procedures

NOTE: All procedures below are presented as PDF files. If you need a reader for these files, you should download the free Adobe Reader.

NOT FOR NAVIGATION. Please procure official charts for flight.
FAA instrument procedures published for use from 21 May 2020 at 0901Z to 18 June 2020 at 0900Z.

 
IAPs - Instrument Approach Procedures
RNAV (GPS) RWY 05 **CHANGED**   download (190KB)
RNAV (GPS) RWY 23 **CHANGED**   download (188KB)
VOR/DME RWY 23   download (224KB)
NOTE: Special Alternate Minimums apply   download (34KB)
NOTE: Special Take-Off Minimums/Departure Procedures apply   download (149KB)

Other nearby airports with instrument procedures:

KCKZ - Pennridge Airport (8 nm NW)
KUKT - Quakertown Airport (13 nm NW)
KLOM - Wings Field Airport (13 nm SW)
KTTN - Trenton Mercer Airport (15 nm E)
N40 - Sky Manor Airport (15 nm NE)
KPNE - Northeast Philadelphia Airport (16 nm S)
N85 - Alexandria Airport (16 nm N)
N10 - Perkiomen Valley Airport (16 nm SW)
 
Loc | Ops | Rwys | IFR | FBO | Links
Com | Nav | Svcs | Stats | Notes
Area around KDYL (Doylestown Airport)
 
Road maps at: MapQuest Bing Google
 
Aerial photo
WARNING: Photo may not be current or correct
Aerial photo of KDYL (Doylestown Airport)
Photo by Sajeeb Baksh
Photo taken 04-Jul-2019
looking west.

Do you have a better or more recent aerial photo of Doylestown Airport that you would like to share? If so, please send us your photo.

 
Sectional chart

 
Airport distance calculator
Flying to Doylestown Airport? Find the distance to fly.

From to KDYL

Sunrise and sunset
Times for 27-May-2020
 Local
(UTC-4)
 Zulu
(UTC)
Morning civil twilight05:0409:04
Sunrise05:3609:36
Sunset20:2000:20
Evening civil twilight20:5200:52

Current date and time
Zulu (UTC)  27-May-2020 06:06:07
Local (UTC-4)  27-May-2020 02:06:07
 
METAR
KDYL 270554Z AUTO 00000KT 10SM CLR 18/16 A3019 RMK AO2 SLP220 T01780156 10250 20178 51005
KCKZ 
8nm NW 
270555Z AUTO 00000KT 3/4SM BR SCT046 15/15 A3021 RMK AO2
KUKT 
13nm NW 
270555Z AUTO 00000KT 10SM CLR 17/17 A3021 RMK A01
KLOM 
13nm SW 
270555Z AUTO 17003KT 10SM CLR 16/16 A3021 RMK AO2 T01610159 10237 20154
KTTN 
14nm E 
ASOS 133.70 609-538-8690
270553Z AUTO 11003KT 10SM CLR 17/16 A3019 RMK AO2 SLP217 T01670156 10233 20167 51004
KPNE 
16nm S 
270554Z AUTO 13005KT 10SM CLR 18/16 A3021 RMK AO2 SLP230 T01780161 10261 20178 53005
TAF
KTTN 
14nm E 
261721Z 2618/2718 18005KT P6SM FEW250 FM270500 VRB02KT 1SM BR OVC005 FM270800 00000KT 1/2SM FG OVC002 TEMPO 2708/2712 1/4SM FG FM271400 VRB02KT 3SM BR OVC005 FM271600 16005KT P6SM BKN015
KPNE 
16nm S 
270052Z 2701/2724 21004KT P6SM SCT025 TEMPO 2701/2703 BKN025 FM270500 VRB02KT 1SM BR OVC005 FM270800 00000KT 1/2SM FG OVC002 TEMPO 2708/2712 1/4SM FG FM271300 13005KT 3SM BR OVC008 FM271500 13008KT P6SM BKN015 FM271900 16007KT P6SM BKN035
NOTAMs
Click for the latest NOTAMs
NOTAMs are issued by the DoD/FAA and will open in a separate window not controlled by AirNav.

 

 
 

FBO, Fuel Providers, and Aircraft Ground Support

  
 Business Name 
 
 Contact 
 
 Services / Description 
 
Fuel Prices
 
Comments
  
Leading Edge Aviation 215-340-0707
[web site]
[email]
Aviation fuel, Aircraft parking (ramp or tiedown), Hangars, GPU / Power cart, Flight training, Aircraft rental, Aerial tours / aerial sightseeing, ...

More info about Leading Edge Aviation
Phillips 66
100LL Jet A
FS $4.89 $4.50 
 Updated 13-May-2020
 
   write
FS=Full service
Update Fuel Prices
 

Would you like to see your business listed on this page?

 If your business provides an interesting product or service to pilots, flight crews, aircraft, or users of the Doylestown Airport, you should consider listing it here.  To start the listing process, click on the button below
 
Add a business
 

Other Pages about Doylestown Airport

Update a link
 
Copyright © AirNav, LLC. All rights reserved. Privacy Policy  Contact